Regional Weather Roundup
Issued by NWS Pendleton, OR

Home | Current Version | Previous Version | Text Only | Print | Product List | Glossary On
Versions: 1 2 3 4 5 6 7 8 9 10 11 12 13 14 15 16 17 18 19 20 21 22 23 24 25 26 27 28 29 30 31 32 33 34 35 36 37 38 39 40 41 42 43 44 45 46 47 48 49 50
174
ASUS46 KPDT 191804
RWRPDT
PENDLETON REGIONAL WEATHER ROUNDUP
NATIONAL WEATHER SERVICE PENDLETON OREGON
1000 AM PST THU JAN 19 2017

NOTE: FAIR INDICATES FEW OR NO CLOUDS BELOW 12,000 FEET WITH NO
SIGNIFICANT WEATHER AND/OR OBSTRUCTIONS TO VISIBILITY.

# INDICATES UNOFFICIAL STATION AND DATA

WAZ520-191910-
EAST SLOPES OF WASHINGTON CASCADES

CITY            SKY/WX      TMP DP  RH  WIND    PRES   REMARKS
#CLE ELUM HS    N/A         32  28  85  CALM    29.55R
#CLE ELUM LAKE  N/A         30  29  96  CALM    29.63R
#GLENWOOD       N/A         35  34  96  CALM    29.64R
#NELSON 3SW     N/A         29  28  96  CALM    29.86R
#NILE           N/A         31  30  96  CALM    28.89R
#RONALD 2NW     N/A         27  N/A N/A N1      29.43R
#TEANAWAY 4NE   N/A         33  33  100 CALM    N/A
#TROUT LAKE 1NE N/A         34  33  96  CALM    29.66R
#TROUT LAKE 1E  N/A         33  32  96  CALM    29.62R
$$

WAZ521-191910-
SIMCOE HIGHLANDS

CITY            SKY/WX      TMP DP  RH  WIND    PRES   REMARKS
#BICKLETON HS   N/A         36  33  89  SW10    29.22R
#CENTERVILLE 1SWN/A         25  23  92  CALM    29.64R
#GOLDENDALE 1NE N/A         33  31  92  CALM    N/A
#GOLDENDALE 4W  N/A         34  20  56  CALM    29.65R
#GOODNOE HILLS  N/A         40  35  82  SW3     N/A
#LYLE 6NE       N/A         36  35  96  NE1     29.63S
#PITT 4SE       N/A         37  35  92  CALM    29.66S
$$

WAZ026-191910-
KITTITAS VALLEY

CITY            SKY/WX      TMP DP  RH  WIND    PRES   REMARKS
ELLENSBURG AP   CLOUDY      34  30  85  CALM    29.57S FOG
6HR MIN TEMP:   31; 6HR MAX TEMP:   34;

#ELLENSBURG CWU N/A         33  31  92  CALM    29.59S
#ELLENSBURG 3NE N/A         31  30  96  CALM    27.69R
#ELLENSBURG 1E  N/A         33  N/A N/A CALM    N/A
#KITTITAS 4N    N/A         34  30  85  CALM    29.61F
#KITTITAS 3S    N/A         32  31  96  CALM    29.64R
#THORP 6N       N/A         30  29  96  CALM    29.67R
$$

WAZ027-191910-
YAKIMA VALLEY

CITY            SKY/WX      TMP DP  RH  WIND    PRES   REMARKS
SUNNYSIDE AP    FOG         N/A N/A N/A CALM    29.64R VSB<1/4
YAKIMA AIRPORT  FOG         34  32  92  SW3     29.61S VSB 1/2
6HR MIN TEMP:   30; 6HR MAX TEMP:   34;

YAKIMA-VAGABOND FOG         31  30  96  CALM    29.58R VSB<1/4
6HR MIN TEMP:   26; 6HR MAX TEMP:   31;

#DONALD 2NE     N/A         28  22  78  CALM    28.46S
#MABTON         N/A         23  22  96  CALM    29.63R
#NACHES 2SW     N/A         32  31  96  CALM    29.57S
#TERRACE HTS    N/A         30  29  96  CALM    29.64R
#TOPPENISH      N/A         25  24  96  CALM    29.59R
#WEST VALLEY    N/A         32  31  96  CALM    29.64S
#W YAKIMA       N/A         32  31  96  CALM    29.66R
#WHITE SWAN 5E  N/A         25  24  96  CALM    29.66F
#WILEY CITY 3W  N/A         32  28  85  CALM    29.56S
$$

WAZ028-191910-
LOWER COLUMBIA BASIN...WASHINGTON

CITY            SKY/WX      TMP DP  RH  WIND    PRES   REMARKS
PASCO           MOCLDY      31  30  96  CALM    29.64R FOG
6HR MIN TEMP:   26; 6HR MAX TEMP:   31;

PROSSER AWOS    N/A         21  21  100 CALM    29.67R
RICHLAND AWOS   MOCLDY      29  28  96  NW3     29.65R FOG
#BENTON CITY    N/A         25  23  92  CALM    29.57R
#CONNELL 5N     N/A         35  34  96  CALM    29.65R
#CONNELL 5NW    N/A         35  33  92  CALM    29.61R
#ELTOPIA 6NW    N/A         33  32  96  CALM    28.59R
#KAHLOTUS       N/A         40  35  82  W9      29.63S
#KENNEWICK 3S   N/A         41  36  82  CALM    29.66R
#PATERSON       N/A         31  29  92  CALM    29.65R
#SAGEMOOR 2W    N/A         33  31  92  CALM    29.49S
#TOUCHET 2S     N/A         36  32  85  CALM    29.63R
#WEST PASCO     N/A         33  31  92  CALM    29.58R
$$

WAZ029-191910-
FOOTHILLS OF THE BLUES...WASHINGTON

CITY            SKY/WX      TMP DP  RH  WIND    PRES   REMARKS
WALLA WALLA AP  CLOUDY      39  33  79  CALM    29.62R
6HR MIN TEMP:   36; 6HR MAX TEMP:   44; 6HR PCP:  TRACE;

#CLYDE 6NW      N/A         40  34  79  CALM    29.63R
#DAYTON SCHOOL  N/A         40  31  70  CALM    29.66R
#LOWDEN 2SE     N/A         37  34  89  CALM    29.60R
#PLEASANT VIEW 1N/A         38  33  82  SW9     29.67S
#PRESCOTT       N/A         36  33  89  CALM    29.64R
#WHITMAN COLLEGEN/A         44  36  73  CALM    29.67R
#WAITSBURG 5S   N/A         41  35  79  CALM    29.72R
#WAITSBURG 8N   N/A         42  N/A N/A S1      29.47R
#WALLA WALLA 5E N/A         43  38  82  CALM    N/A
#WHITMAN MISSIONN/A         38  34  85  CALM    29.65R
$$

WAZ030-191910-
BLUE MOUNTAINS...WASHINGTON

CITY            SKY/WX      TMP DP  RH  WIND    PRES   REMARKS
#DIXIE 5SE      N/A         42  33  70  S7      29.51R
#SKI BLUEWOOD   N/A         34  33  96  CALM    29.56R
$$

ORZ009-041-WAZ024-191910-
COLUMBIA RIVER GORGE

CITY            SKY/WX      TMP DP  RH  WIND    PRES   REMARKS
HOOD RIVER AP   CLOUDY      32  32  100 CALM    29.64S FOG
THE DALLES AP   MOCLDY      29  27  92  E5      29.67R FOG
6HR MIN TEMP:   24; 6HR MAX TEMP:   29;

#ARLINGTON AIRPON/A         36  33  89  CALM    29.68R
#ARLINGTON HS   N/A         32  26  78  S3      29.56R
#CELILO DOT     N/A         33  28  82  SW1     N/A
#LYLE           N/A         34  33  96  CALM    29.68R
#MOSIER 1S      N/A         34  31  89  CALM    29.62S
#MURDOCK        N/A         32  30  92  CALM    29.64R
#RUFUS DOT      N/A         31  28  88  S3      N/A
#SMITHVILLE     N/A         29  28  96  N3      29.62R

$$

ORZ510-191910-
NORTH CENTRAL OREGON

CITY            SKY/WX      TMP DP  RH  WIND    PRES   REMARKS
#ANTELOPE       N/A         33  28  82  CALM    29.51R
#CHENOWITH 1W   N/A         37  36  96  CALM    N/A
#COW CYN RST AREN/A         40  N/A N/A S3      N/A
#DUFUR 9E       N/A         39  33  79  SW15    29.67R WCI 31
#GRASS VALLEY 1SN/A         38  33  82  S6      29.57R
#KENT DOT       N/A         39  26  59  N3      N/A
#MAUPIN SCHOOL  N/A         36  32  85  CALM    29.68R
#SHANIKO 5WSW   N/A         36  25  64  N14     N/A    WCI 27
#SHANIKO 4NW    N/A         36  30  79  S17G24  29.57S WCI 26
#TYGH VALLEY 2NEN/A         35  32  89  CALM    29.65S
#WAPANITIA AIRPON/A         41  34  76  CALM    29.65R
#WASCO DOT      N/A         28  26  92  CALM    N/A
#WASCO AIRPORT  N/A         35  30  82  S1      N/A
#WASCO 5NE      N/A         36  32  85  N5      29.67R
$$

ORZ511-191910-
CENTRAL OREGON

CITY            SKY/WX      TMP DP  RH  WIND    PRES   REMARKS
BEND AIRPORT    MOCLDY      36  28  72  SW13    29.62S WCI 27
MADRAS AIRPORT  MOCLDY      36  30  79  S3      29.64R
PRINEVILLE AP   MOCLDY      37  28  70  SE5     29.62R
REDMOND AIRPORT MOCLDY      38  28  67  SE7     29.60S
6HR MIN TEMP:   32; 6HR MAX TEMP:   39;

#ASHWOOD SCHOOL N/A         38  32  79  CALM    29.60S
#BEND 1SW       N/A         32  30  92  NW2     N/A
#BEND-AWBREY    N/A         34  31  89  SW5     29.68R
#BEND-KIM LN    N/A         34  30  85  CALM    29.59S
#CULVER         N/A         38  31  76  SE5     29.57S
#CULVER 8W      N/A         38  28  67  SE1     29.65S
#LAKE BILLY CHINN/A         37  N/A N/A SE8     29.74
#MADRAS 4S      N/A         40   3  21  S13     29.71S WCI 32
#POWELL BUTTE   N/A         40  25  55  S9      29.61S
#PRINEVILLE 3N  N/A         36  30  79  W2      29.66R
#WARM SPRINGS   N/A         38  32  79  CALM    29.61R

$$


ORZ509-191910-
EAST SLOPES OF OREGON CASCADES

CITY            SKY/WX      TMP DP  RH  WIND    PRES   REMARKS
#CAMP SHERMAN   N/A         33  31  92  CALM    29.72S
#LA PINE 4NW    N/A         31  28  88  CALM    29.74R
#LAVA BUTTE DOT N/A         31  27  85  SE2     N/A
#SISTERS ODOT   N/A         35  N/A N/A NW1     N/A
#SISTERS 3N     N/A         35  29  78  N3      29.67S
#SUNRIVER       N/A         32  31  96  S2      29.70R
#TUMALO 3W      N/A         38  30  73  S7      29.52R
#WANOGA BUTTE D N/A         27  27  100 CALM    N/A

$$

ORZ044-191910-
LOWER COLUMBIA BASIN...OREGON

CITY            SKY/WX      TMP DP  RH  WIND    PRES   REMARKS
HERMISTON       MOCLDY      34  32  92  CALM    29.63S FOG
6HR MIN TEMP:   30; 6HR MAX TEMP:   35;

#BOARDMAN SCHOOLN/A         29  27  92  CALM    29.65S
#ECHO 8SW       N/A         36  36  100 CALM    29.65R
#I-84 EX 198 DOTN/A         42  35  76  N2      N/A
#UMATILLA       N/A         33  30  89  CALM    29.60R
$$

ORZ507-191910-
NORTHERN FOOTHILLS OF THE BLUES

CITY            SKY/WX      TMP DP  RH  WIND    PRES   REMARKS
PENDLETON AIRPT PTCLDY      41  35  79  S7      29.62R
6HR MIN TEMP:   36; 6HR MAX TEMP:   42;

#ADAMS 3WNW     N/A         39  34  82  CALM    29.65R
#ATHENA         N/A         42  36  79  S1      29.67R
#CAYUSE         N/A         44  36  73  E1      29.63S
#HELIX SCHOOL   N/A         37  34  89  CALM    29.65R
#HELIX 3N       N/A         38  34  85  N8      29.60R
#HOLDMAN 6E     N/A         39  35  85  E3      29.45S
#M-F GROVE ELEM N/A         46  34  63  CALM    29.60R
#PDT AQUATIC CTRN/A         38  33  82  CALM    29.63S
#PDT SUNRIDGE   N/A         38  35  89  CALM    29.63S
#PENDLETON 7NW  N/A         38  34  85  CALM    32.00S
#PILOT ROCK 1S  N/A         42  31  65  CALM    29.63R
#PILOT ROCK     N/A         44  36  73  W1      29.65R
#TUTUILLA       N/A         39  35  85  CALM    29.64R
#WESTON SCHOOL  N/A         43  33  67  SW5     29.52R

$$

ORZ508-191910-
SOUTHERN FOOTHILLS OF THE BLUES

CITY            SKY/WX      TMP DP  RH  WIND    PRES   REMARKS
LEXINGTON       N/A         N/A N/A N/A MISG    N/A
#AJAX           N/A         40  26  57  S9      27.39S
#CONDON SCHOOL  N/A         40  33  76  SW8     29.58S
#CONDON 5W      N/A         38  29  70  S10     29.56S
#FOSSIL SCHOOL  N/A         44  35  70  CALM    29.58S
#HEPPNER EOC    N/A         45  35  68  S3      29.55R
#HEPPNER 4NE    N/A         42  34  73  CALM    29.63R
#LEXINGTON 2SE  N/A         43  36  76  CALM    29.59S
#MIKKALO        N/A         41  31  67  SW1     29.72S
#OLEX 4N        N/A         37  32  82  S3      29.61S
#RUGGS 5NE      N/A         40  33  76  E3      29.75S
#RUGGS 2SW      N/A         40  33  76  SW6     29.65S

$$

ORZ502-503-191910-
BLUE MOUNTAINS

CITY            SKY/WX      TMP DP  RH  WIND    PRES   REMARKS
MEACHAM         LGT SNOW    35  30  82  CALM    29.60S
6HR MIN TEMP:   31; 6HR MAX TEMP:   35; 6HR PCP:  0.03;

#BATTLE MTN DOT N/A         33  32  96  S7      N/A
#GREENHORN 9SW  N/A         28  27  96  CALM    25.88R
#HEPPNER 15SE   N/A         37  31  79  CALM    25.16R
#LADD CYN SMT   N/A         31  30  96  E13     N/A    WCI 21
#LADD CREEK ODOTN/A         33  32  96  W3      N/A
#LONG CREEK HS  N/A         38  36  92  SW8     N/A
#N POWDER DOT   N/A         33  31  92  CALM    N/A
#PIKES PEAK     N/A         40  31  70  N8      27.99S
#TOLLGATE       N/A         30  29  96  CALM    29.50S
#TROY SCHOOL    N/A         34  33  96  CALM    29.58R
#UKIAH          N/A         34  32  92  CALM    29.61R
#WESTON 4E      N/A         36  33  89  E7      29.63R
$$

ORZ505-191910-
JOHN DAY BASIN

CITY            SKY/WX      TMP DP  RH  WIND    PRES   REMARKS
JOHN DAY        CLOUDY      36  34  92  E6      29.64S
#ANTELOPE 9ESE  N/A         36  32  85  CALM    N/A
#DAYVILLE SCHOOLN/A         37  34  89  S2      29.64S
#MITCHELL       N/A         41  35  79  CALM    29.80S
#MITCHELL 8NW   N/A         41  29  62  W5      29.45S
#MONUMENT HS    N/A         37  30  75  CALM    29.62S
#MT. VERNON 5SE N/A         36  34  92  CALM    29.58S
#SPRAY SCHOOL   N/A         34  N/A N/A CALM    N/A
$$

ORZ506-191910-
OCHOCO AND JOHN DAY HIGHLANDS

CITY            SKY/WX      TMP DP  RH  WIND    PRES   REMARKS
#HORSE RIDGE DO N/A         35  27  72  S13     N/A    WCI 26
#KEYES SMT DOT  N/A         37  27  67  W9      N/A
#PAULINA SCHOOL N/A         39  30  70  SW6     N/A
#PINE MTN OBS   N/A         26  25  96  CALM    N/A
#SENECA         N/A         35  N/A N/A CALM    N/A
#SENECA 9NW     N/A         33  32  96  CALM    29.69S
$$

ORZ049-191910-
GRANDE RONDE VALLEY

CITY            SKY/WX      TMP DP  RH  WIND    PRES   REMARKS
LA GRANDE       CLOUDY      36  34  92  SW8     29.64S
#COVE           N/A         33  33  100 N2      29.70R
#COVE 6NW       N/A         34  32  92  SE2     29.75S
#ELGIN 3N       N/A         34  29  82  S6      29.65R
#ELGIN 1E       N/A         35  31  85  SE1     N/A
#IMBLER SCHOOL  N/A         31  30  96  CALM    29.64S
#ISLAND CITY 4N N/A         45  43  93  S5      29.61S
#LADD CYN DOT   N/A         35  31  85  S15     N/A    WCI 25
$$

ORZ050-191910-
WALLOWA COUNTY

CITY            SKY/WX      TMP DP  RH  WIND    PRES   REMARKS
#IMNAHA SCHOOL  N/A         38  35  89  N2      29.68R
#IMNAHA 10S     N/A         37  31  79  CALM    29.64R
#JOSEPH 3N      N/A         29  25  85  CALM    29.69R
#JOSEPH 3W      N/A         32  28  85  CALM    29.50R
#LOSTINE        N/A         31  29  92  CALM    29.56R
#LOSTINE 3SE    N/A         31  30  96  CALM    29.67R
#MT HOWARD 8000 N/A         25  23  92  CALM    29.50S
#PROMISE 1S     N/A         31  29  92  CALM    29.82S
#WALLOWA SCHOOL N/A         29  27  92  CALM    29.65R



$$



USA.gov is the U.S. government's official web portal to all federal, state and local government web resources and services.